Regional Weather Roundup
Issued by NWS Albany, NY

Home | Current Version | Previous Version | Graphics & Text | Print | Product List | Glossary On
Versions: 1 2 3 4 5 6 7 8 9 10 11 12 13 14 15 16 17 18 19 20 21 22 23 24 25 26 27 28 29 30 31 32 33 34 35 36 37 38 39 40 41 42 43 44 45 46 47 48 49 50
000
ASUS41 KALY 101610
RWRALY

NEW YORK STATE HOURLY WEATHER ROUNDUP
NATIONAL WEATHER SERVICE ALBANY NY
1100 AM EST WED FEB 10 2016

NOTE: "FAIR" INDICATES FEW OR NO CLOUDS BELOW 12,000 FEET WITH NO
SIGNIFICANT WEATHER AND/OR NO OBSTRUCTIONS TO VISIBILITY.

NYZ032-033-038>043-046>054-057>066-NYZ062>081-101700-
EAST


CITY           SKY/WX    TMP DP  RH WIND       PRES   REMARKS
ALBANY         PTSUNNY   33  28  81 S7        29.58S WCI  27
GLENS FALLS    CLOUDY    31  25  78 S10       29.55F WCI  22
POUGHKEEPSIE   CLOUDY    37  24  59 W8        29.59F WCI  31
NEWBURGH       PTSUNNY   37  25  60 NW17G29   29.59F WCI  28
MONTGOMERY     MOSUNNY   37  21  52 W12G22    29.58F WCI  29
WHITE PLAINS   MOSUNNY   35  25  66 W10G17    29.58F WCI  27
ISLIP          LGT SNOW  35  29  78 W8        29.59F WCI  29
NEW YORK CITY  CLOUDY    36  28  73 NW13G22   29.62F WCI  27
CENTRAL PARK   CLOUDY    35  26  69 W9        29.64F WCI  28
$$

NYZ005>009-017-018-044>046-055-056-101700-
CENTRAL


CITY           SKY/WX    TMP DP  RH WIND       PRES   REMARKS
FULTON         LGT SNOW  32  26  78 W12G24    29.58R VSB 1   WCI  23
SYRACUSE       LGT SNOW  29  26  89 W17       29.58R FOG     WCI  17
ROME           LGT SNOW  29  26  89 W14G26    29.58R FOG     WCI  18
ELMIRA         LGT SNOW  29  21  72 W17       29.62R WCI  17
BINGHAMTON     CLOUDY    28  20  71 W13G23    29.55R WCI  17
MONTICELLO     CLOUDY    30  21  69 NW13G21   29.57S WCI  20
$$

NYZ026>034-041>043-101700-
NORTH


CITY           SKY/WX    TMP DP  RH WIND       PRES   REMARKS
WATERTOWN      LGT SNOW  24  19  81 W7        29.56R WCI  16
FORT DRUM      NOT AVBL
MASSENA        LGT SNOW  22  17  81 NE8       29.55S WCI  12
SARANAC LAKE   CLOUDY    29  23  78 SW10      29.41S WCI  20
PLATTSBURGH    LGT SNOW  24  20  84 N5        29.53S FOG     WCI  18
$$

NYZ001>004-010>016-019>021-101700-
WEST


CITY           SKY/WX    TMP DP  RH WIND       PRES   REMARKS
NIAGARA FALLS  LGT SNOW  26  20  77 W18       29.64R WCI  13
BUFFALO        LGT SNOW  25  20  81 W18G26    29.64R BLWGSNOWWCI  11
DUNKIRK        MIX PCPN  27  19  72 W15G32    29.69R WCI  15
JAMESTOWN      CLOUDY    21  16  79 W17       29.62R WCI   7
WELLSVILLE     FLURRIES  24  15  68 W21G32    29.58R WCI   9
ROCHESTER      FLURRIES  30  24  78 W16G23    29.61R WCI  19
PENN YAN       CLOUDY    30  18  60 W17G26    29.59R WCI  18
$$

             KEY
       WCI = WIND CHILL INDEX
       VSB = VISIBILITY
       HX  = HEAT INDEX
$$



USA.gov is the U.S. government's official web portal to all federal, state and local government web resources and services.